Weather History for Cincinnati, OH

Change the Weather History Date:

Wednesday, October 9, 2013

  Actual Average Record
Temperature  
Mean Temperature 58 °F -  
Max Temperature 73 °F 68 °F 87 °F (1949)
Min Temperature 42 °F 47 °F 31 °F (1989)
Degree Days  
Heating Degree Days 8    
Growing Degree Days 8 (Base 50)    
Moisture  
Dew Point 45 °F    
Average Humidity 89    
Maximum Humidity 100    
Minimum Humidity 37    
Precipitation  
Precipitation 0.01 in - - ()
Sea Level Pressure  
Sea Level Pressure 30.21 in    
Wind  
Wind Speed 0 mph (NE)    
Max Wind Speed 8 mph    
Max Gust Speed -    
Visibility 5 miles    
Events Fog    
Averages and records for this station are not official NWS values.
T = Trace of Precipitation, MM = Missing Value Source: NWS Daily Summary

Daily Weather History Graph

Daily Weather History Graph

Search for Another Location

Airport:

Trip Planner

Search our weather history database for the weather conditions in past years. The results will help you decide how hot, cold, wet, or windy it might be!

Date:

Astronomy

Oct. 09, 2013 Rise Set
Actual Time 7:41 AM EDT 7:07 PM EDT
Civil Twilight 7:14 AM EDT 7:34 PM EDT
Nautical Twilight 6:43 AM EDT 8:05 PM EDT
Astronomical Twilight 6:12 AM EDT 8:36 PM EDT
Moon 12:34 PM EDT (10/9) 10:42 PM EDT (10/9)
Length of Visible Light 12h 19m
Length of Day
11h 25m
Waxing Crescent, 25% of the Moon is Illuminated
Oct 9
Waxing Crescent
Oct 11
First Quarter
Oct 18
Full
Oct 26
Last Quarter
Nov 3
New

Hourly Weather History & Observations

Time (EDT) Temp. Dew Point Humidity Pressure Visibility Wind Dir Wind Speed Gust Speed Precip Events Conditions
12:39 AM 46.4 °F 46.4 °F 100% 30.24 in 1.8 mi Calm Calm - N/A   Clear
12:53 AM 45.0 °F 45.0 °F 100% 30.23 in 1.2 mi Calm Calm - N/A   Clear
1:28 AM 44.6 °F 44.6 °F 100% 30.23 in 4.0 mi Calm Calm - N/A   Clear
1:37 AM 44.6 °F 44.6 °F 100% 30.23 in 1.8 mi Calm Calm - N/A   Clear
1:43 AM 46.4 °F 44.6 °F 93% 30.23 in 3.0 mi Calm Calm - N/A   Clear
1:53 AM 46.0 °F 45.0 °F 96% 30.23 in 4.0 mi Calm Calm - N/A   Clear
2:50 AM 44.6 °F 44.6 °F 100% 30.23 in 1.8 mi Calm Calm - N/A   Clear
2:53 AM 44.1 °F 44.1 °F 100% 30.23 in 0.8 mi Calm Calm - N/A   Clear
3:08 AM 44.6 °F 44.6 °F 100% 30.22 in 3.0 mi Calm Calm - N/A   Clear
3:13 AM 44.6 °F 44.6 °F 100% 30.22 in 1.5 mi Calm Calm - N/A   Clear
3:36 AM 44.6 °F 44.6 °F 100% 30.22 in 4.0 mi Calm Calm - N/A   Clear
3:53 AM 44.1 °F 43.0 °F 96% 30.21 in 8.0 mi Calm Calm - N/A   Clear
4:00 AM 44.6 °F 44.6 °F 100% 30.21 in 1.8 mi Calm Calm - N/A   Partly Cloudy
4:08 AM 44.6 °F 44.6 °F 100% 30.21 in 3.0 mi Calm Calm - N/A   Clear
4:18 AM 44.6 °F 42.8 °F 93% 30.21 in 5.0 mi Calm Calm - N/A   Scattered Clouds
4:25 AM 44.6 °F 42.8 °F 93% 30.21 in 2.5 mi Calm Calm - N/A   Mostly Cloudy
4:31 AM 44.6 °F 42.8 °F 93% 30.21 in 0.8 mi Calm Calm - N/A   Mist
4:53 AM 43.0 °F 42.1 °F 97% 30.21 in 0.5 mi Calm Calm - N/A Fog Fog
5:02 AM 42.8 °F 42.8 °F 100% 30.21 in 0.2 mi Calm Calm - N/A Fog Fog
5:07 AM 42.8 °F 42.8 °F 100% 30.21 in 1.2 mi Calm Calm - N/A   Scattered Clouds
5:14 AM 42.8 °F 42.8 °F 100% 30.21 in 3.0 mi Calm Calm - N/A   Partly Cloudy
5:17 AM 42.8 °F 42.8 °F 100% 30.21 in 1.8 mi Calm Calm - N/A   Partly Cloudy
5:25 AM 42.8 °F 42.8 °F 100% 30.21 in 0.5 mi Calm Calm - 0.01 in Fog Fog
5:35 AM 42.8 °F 42.8 °F 100% 30.21 in 1.2 mi Calm Calm - 0.01 in   Partly Cloudy
5:38 AM 42.8 °F 42.8 °F 100% 30.21 in 3.0 mi Calm Calm - 0.01 in   Clear
5:41 AM 44.6 °F 42.8 °F 93% 30.21 in 1.8 mi Calm Calm - 0.01 in   Clear
5:53 AM 43.0 °F 43.0 °F 100% 30.22 in 0.5 mi Calm Calm - 0.01 in Fog Fog
6:03 AM 42.8 °F 42.8 °F 100% 30.22 in 2.0 mi Calm Calm - N/A   Clear
6:10 AM 42.8 °F 42.8 °F 100% 30.22 in 4.0 mi Calm Calm - N/A   Clear
6:33 AM 42.8 °F 42.8 °F 100% 30.22 in 1.8 mi Calm Calm - N/A   Clear
6:43 AM 42.8 °F 42.8 °F 100% 30.22 in 10.0 mi Calm Calm - N/A Fog Patches of Fog
6:53 AM 43.0 °F 43.0 °F 100% 30.23 in 10.0 mi Calm Calm - N/A Fog Patches of Fog
7:53 AM 43.0 °F 43.0 °F 100% 30.25 in 10.0 mi Calm Calm - N/A Fog Patches of Fog
8:53 AM 46.9 °F 46.0 °F 97% 30.27 in 10.0 mi Calm Calm - N/A   Clear
9:53 AM 53.1 °F 48.0 °F 83% 30.26 in 10.0 mi NNE 4.6 mph - N/A   Clear
10:53 AM 59.0 °F 50.0 °F 72% 30.26 in 10.0 mi Calm Calm - N/A   Clear
11:53 AM 64.0 °F 51.1 °F 63% 30.25 in 10.0 mi North 4.6 mph - N/A   Clear
12:53 PM 69.1 °F 51.1 °F 53% 30.24 in 10.0 mi North 6.9 mph - N/A   Clear
1:53 PM 71.1 °F 48.0 °F 44% 30.21 in 10.0 mi SE 6.9 mph - N/A   Clear
2:53 PM 73.0 °F 46.0 °F 38% 30.18 in 10.0 mi NE 8.1 mph - N/A   Clear
3:53 PM 73.9 °F 46.0 °F 37% 30.17 in 10.0 mi Variable 3.5 mph - N/A   Clear
4:53 PM 73.0 °F 46.0 °F 38% 30.17 in 10.0 mi East 4.6 mph - N/A   Clear
5:53 PM 71.1 °F 44.1 °F 38% 30.17 in 10.0 mi ENE 3.5 mph - N/A   Clear
6:53 PM 63.0 °F 52.0 °F 67% 30.18 in 10.0 mi Calm Calm - N/A   Clear
7:53 PM 57.0 °F 51.1 °F 81% 30.18 in 10.0 mi Calm Calm - N/A   Clear
8:53 PM 53.1 °F 50.0 °F 89% 30.19 in 10.0 mi Calm Calm - N/A   Clear
9:53 PM 50.0 °F 48.9 °F 96% 30.19 in 10.0 mi Calm Calm - N/A   Clear
10:53 PM 48.9 °F 48.0 °F 97% 30.20 in 10.0 mi Calm Calm - N/A   Clear
11:53 PM 48.0 °F 46.9 °F 96% 30.19 in 8.0 mi Calm Calm - N/A   Clear
11:58 PM 46.4 °F 46.4 °F 100% 30.19 in 1.8 mi Calm Calm - N/A   Clear